RYR48AP LZIB-LIRN

Flight info

Callsign RYR48AP
Flight time 1h 17m
Altitude 36000
Route VAMOG DCT SIRDU DCT KOPRY DCT SAL DCT ELGUS DCT SUXUB DCT ERIKA
Aircraft B738/M-SDE1E2E3FGIJ1LRWY/SB1

Departure

Time 2026-05-04 13:58
Airport M. R. Štefánik Airport (LZIB)

Arrival

Time 2026-05-04 15:15
Airport Naples International Airport (LIRN)
Time Latitude Longitude Altitude Speed Heading
2026-05-04 13:29 48.16951 17.20141 424 ft 0 kts 314°
2026-05-04 13:51 48.16951 17.20142 467 ft 1 kts 314°
2026-05-04 13:51 48.16935 17.20167 424 ft 4 kts 314°
2026-05-04 13:51 48.16915 17.20192 430 ft 4 kts 346°
2026-05-04 13:51 48.16903 17.20192 429 ft 0 kts 44°
2026-05-04 13:54 48.16951 17.20262 431 ft 13 kts 44°
2026-05-04 13:54 48.17017 17.20357 433 ft 13 kts 44°
2026-05-04 13:54 48.17155 17.20557 425 ft 12 kts 38°
2026-05-04 13:55 48.17229 17.20550 427 ft 11 kts 320°
2026-05-04 13:55 48.17337 17.20387 429 ft 11 kts 317°
2026-05-04 13:55 48.17400 17.20313 431 ft 12 kts 338°
2026-05-04 13:56 48.17478 17.20312 429 ft 12 kts 22°
2026-05-04 13:56 48.17534 17.20395 419 ft 12 kts 73°
2026-05-04 13:56 48.17504 17.20503 428 ft 1 kts 135°
2026-05-04 13:57 48.17399 17.20664 432 ft 56 kts 134°
2026-05-04 13:57 48.16958 17.21348 418 ft 123 kts 134°
2026-05-04 13:58 48.14679 17.24879 2360 ft 171 kts 139°
2026-05-04 13:58 48.12707 17.27915 3008 ft 226 kts 137°
2026-05-04 13:58 48.11604 17.29636 3714 ft 234 kts 137°
2026-05-04 13:59 48.10457 17.31411 4514 ft 240 kts 137°
2026-05-04 13:59 48.09280 17.33230 5344 ft 246 kts 138°
2026-05-04 13:59 48.06889 17.36910 7024 ft 253 kts 139°
2026-05-04 14:00 48.05616 17.38867 7588 ft 270 kts 138°
2026-05-04 14:00 48.02933 17.43004 9098 ft 284 kts 137°
2026-05-04 14:00 48.01549 17.45137 9968 ft 288 kts 137°
2026-05-04 14:01 48.00129 17.47317 10522 ft 303 kts 137°
2026-05-04 14:01 47.98593 17.49670 10728 ft 328 kts 137°
2026-05-04 14:01 47.95322 17.54688 12094 ft 341 kts 137°
2026-05-04 14:02 47.93663 17.57232 12945 ft 343 kts 136°
2026-05-04 14:02 47.91981 17.59786 13738 ft 346 kts 141°
2026-05-04 14:02 47.89947 17.61622 14310 ft 349 kts 164°
2026-05-04 14:02 47.87562 17.62123 15103 ft 345 kts 184°
2026-05-04 14:03 47.85205 17.61545 15883 ft 345 kts 195°
2026-05-04 14:03 47.82870 17.60628 16583 ft 348 kts 196°
2026-05-04 14:03 47.80542 17.59663 17444 ft 349 kts 197°
2026-05-04 14:03 47.78179 17.58663 17994 ft 356 kts 197°
2026-05-04 14:04 47.73374 17.56633 19233 ft 364 kts 197°
2026-05-04 14:04 47.70927 17.55604 19887 ft 366 kts 197°
2026-05-04 14:04 47.68461 17.54576 20473 ft 370 kts 197°
2026-05-04 14:05 47.63458 17.52502 21605 ft 377 kts 198°
2026-05-04 14:05 47.60917 17.51451 22083 ft 384 kts 197°
2026-05-04 14:05 47.58325 17.50373 22594 ft 388 kts 197°
2026-05-04 14:06 47.55722 17.49291 23221 ft 388 kts 198°
2026-05-04 14:06 47.53119 17.48214 23794 ft 391 kts 198°
2026-05-04 14:06 47.50473 17.47128 24112 ft 398 kts 198°
2026-05-04 14:06 47.47793 17.46030 24536 ft 402 kts 197°
2026-05-04 14:07 47.45082 17.44914 24896 ft 407 kts 197°
2026-05-04 14:07 47.42340 17.43786 25273 ft 411 kts 198°
2026-05-04 14:07 47.39581 17.42657 25740 ft 413 kts 198°
2026-05-04 14:07 47.36796 17.41506 26061 ft 418 kts 198°
2026-05-04 14:08 47.33980 17.40353 26415 ft 422 kts 197°
2026-05-04 14:08 47.31139 17.39199 26815 ft 425 kts 198°
2026-05-04 14:08 47.28278 17.38031 27191 ft 428 kts 198°
2026-05-04 14:08 47.25400 17.36848 27549 ft 431 kts 199°
2026-05-04 14:09 47.19570 17.34473 28281 ft 438 kts 199°
2026-05-04 14:09 47.16667 17.33288 28606 ft 441 kts 198°
2026-05-04 14:10 47.10712 17.30874 29279 ft 447 kts 198°
2026-05-04 14:10 47.07700 17.29657 29609 ft 450 kts 198°
2026-05-04 14:10 47.04629 17.28416 29908 ft 454 kts 197°
2026-05-04 14:10 47.01578 17.27183 30193 ft 456 kts 198°
2026-05-04 14:11 46.98565 17.25965 30677 ft 453 kts 198°
2026-05-04 14:11 46.92510 17.23530 31494 ft 451 kts 197°
2026-05-04 14:11 46.89438 17.22294 31815 ft 452 kts 198°
2026-05-04 14:12 46.86452 17.21090 32215 ft 451 kts 197°
2026-05-04 14:12 46.83434 17.19879 32673 ft 448 kts 197°
2026-05-04 14:12 46.77421 17.17471 33355 ft 449 kts 197°
2026-05-04 14:13 46.74414 17.16266 33718 ft 448 kts 198°
2026-05-04 14:13 46.71412 17.15063 34128 ft 446 kts 197°
2026-05-04 14:13 46.68427 17.13875 34464 ft 444 kts 197°
2026-05-04 14:13 46.65444 17.12689 34729 ft 445 kts 197°
2026-05-04 14:14 46.62459 17.11499 34990 ft 445 kts 198°
2026-05-04 14:14 46.56505 17.09128 35606 ft 443 kts 198°
2026-05-04 14:14 46.53535 17.07949 35890 ft 442 kts 197°
2026-05-04 14:15 46.47568 17.05583 36038 ft 448 kts 198°
2026-05-04 14:15 46.41565 17.03212 36040 ft 445 kts 197°
2026-05-04 14:16 46.32683 16.99710 36042 ft 440 kts 197°
2026-05-04 14:17 46.23858 16.96107 36042 ft 438 kts 204°
2026-05-04 14:18 46.15805 16.90042 36040 ft 436 kts 211°
2026-05-04 14:19 46.05124 16.81730 36045 ft 437 kts 211°
2026-05-04 14:19 45.99763 16.77589 36047 ft 438 kts 211°
2026-05-04 14:20 45.94396 16.73434 36047 ft 438 kts 211°
2026-05-04 14:20 45.89025 16.69275 36036 ft 439 kts 211°
2026-05-04 14:21 45.80954 16.63054 36036 ft 439 kts 211°
2026-05-04 14:21 45.75574 16.58921 36026 ft 439 kts 210°
2026-05-04 14:22 45.70194 16.54800 36032 ft 438 kts 211°
2026-05-04 14:22 45.64824 16.50693 36032 ft 437 kts 211°
2026-05-04 14:23 45.56786 16.44558 36033 ft 436 kts 211°
2026-05-04 14:24 45.51435 16.40485 36030 ft 436 kts 211°
2026-05-04 14:24 45.46124 16.36452 36034 ft 435 kts 211°
2026-05-04 14:25 45.40786 16.32409 36029 ft 434 kts 211°
2026-05-04 14:25 45.32783 16.26362 36031 ft 434 kts 211°
2026-05-04 14:26 45.27442 16.22337 36028 ft 434 kts 211°
2026-05-04 14:26 45.22106 16.18325 36034 ft 434 kts 211°
2026-05-04 14:27 45.17667 16.14993 36031 ft 434 kts 211°
2026-05-04 14:27 45.12330 16.10997 36034 ft 434 kts 211°
2026-05-04 14:28 45.06991 16.07007 36036 ft 434 kts 210°
2026-05-04 14:28 45.01652 16.03025 36036 ft 434 kts 211°
2026-05-04 14:29 44.90962 15.95083 36044 ft 434 kts 211°
2026-05-04 14:30 44.85621 15.91118 36054 ft 434 kts 211°
2026-05-04 14:31 44.77600 15.85194 35972 ft 434 kts 211°
2026-05-04 14:31 44.72301 15.81287 35443 ft 430 kts 211°
2026-05-04 14:32 44.67058 15.77431 34935 ft 420 kts 211°
2026-05-04 14:32 44.64482 15.75539 34690 ft 416 kts 211°
2026-05-04 14:32 44.61912 15.73656 34456 ft 417 kts 211°
2026-05-04 14:32 44.59341 15.71770 34224 ft 417 kts 211°
2026-05-04 14:33 44.56769 15.69884 33975 ft 418 kts 211°
2026-05-04 14:33 44.54190 15.67995 33722 ft 418 kts 211°
2026-05-04 14:33 44.51608 15.66109 33452 ft 419 kts 211°
2026-05-04 14:33 44.49023 15.64220 33183 ft 421 kts 210°
2026-05-04 14:34 44.46414 15.62315 33132 ft 424 kts 210°
2026-05-04 14:34 44.41181 15.58509 33095 ft 423 kts 210°
2026-05-04 14:35 44.35965 15.54716 33109 ft 423 kts 210°
2026-05-04 14:35 44.30742 15.50925 33089 ft 423 kts 210°
2026-05-04 14:36 44.25512 15.47144 33105 ft 424 kts 210°
2026-05-04 14:36 44.20280 15.43362 33123 ft 423 kts 210°
2026-05-04 14:37 44.15051 15.39591 33134 ft 423 kts 210°
2026-05-04 14:37 44.09826 15.35837 33126 ft 422 kts 210°
2026-05-04 14:38 44.04678 15.32146 33121 ft 412 kts 210°
2026-05-04 14:38 43.99571 15.28491 33131 ft 414 kts 210°
2026-05-04 14:39 43.94447 15.24818 33126 ft 415 kts 210°
2026-05-04 14:39 43.89306 15.21144 33111 ft 416 kts 210°
2026-05-04 14:40 43.81580 15.15643 33097 ft 416 kts 210°
2026-05-04 14:40 43.76438 15.11992 33091 ft 415 kts 210°
2026-05-04 14:41 43.71309 15.08355 33094 ft 414 kts 210°
2026-05-04 14:42 43.61127 15.01159 33083 ft 411 kts 210°
2026-05-04 14:42 43.55999 14.97542 33089 ft 411 kts 210°
2026-05-04 14:43 43.50750 14.94356 33097 ft 413 kts 205°
2026-05-04 14:43 43.45388 14.91469 33098 ft 414 kts 204°
2026-05-04 14:44 43.40016 14.88595 33082 ft 414 kts 204°
2026-05-04 14:44 43.34659 14.85693 33084 ft 414 kts 204°
2026-05-04 14:45 43.29296 14.82780 33087 ft 414 kts 204°
2026-05-04 14:45 43.23975 14.79895 33076 ft 414 kts 204°
2026-05-04 14:46 43.18614 14.76994 33089 ft 414 kts 204°
2026-05-04 14:46 43.13250 14.74088 33085 ft 415 kts 204°
2026-05-04 14:47 43.07877 14.71188 33087 ft 415 kts 204°
2026-05-04 14:47 43.02491 14.68287 33082 ft 416 kts 204°
2026-05-04 14:48 42.97100 14.65387 33085 ft 417 kts 204°
2026-05-04 14:48 42.91698 14.62493 33082 ft 417 kts 204°
2026-05-04 14:49 42.86290 14.59594 33075 ft 418 kts 204°
2026-05-04 14:49 42.80872 14.56698 33080 ft 418 kts 204°
2026-05-04 14:50 42.75444 14.53812 33079 ft 419 kts 204°
2026-05-04 14:50 42.70016 14.50918 33064 ft 419 kts 204°
2026-05-04 14:51 42.64590 14.48034 33082 ft 419 kts 205°
2026-05-04 14:51 42.59167 14.45157 33090 ft 418 kts 205°
2026-05-04 14:52 42.53749 14.42283 33095 ft 418 kts 205°
2026-05-04 14:52 42.48430 14.39478 32806 ft 403 kts 205°
2026-05-04 14:53 42.45846 14.38120 32547 ft 396 kts 205°
2026-05-04 14:53 42.43287 14.36773 32200 ft 393 kts 205°
2026-05-04 14:53 42.40753 14.35435 31844 ft 390 kts 205°
2026-05-04 14:53 42.38235 14.34108 31495 ft 387 kts 205°
2026-05-04 14:54 42.35733 14.32789 31148 ft 385 kts 204°
2026-05-04 14:54 42.33243 14.31480 30800 ft 383 kts 204°
2026-05-04 14:54 42.30762 14.30177 30440 ft 382 kts 204°
2026-05-04 14:54 42.28294 14.28881 30093 ft 380 kts 204°
2026-05-04 14:55 42.25838 14.27594 29695 ft 377 kts 204°
2026-05-04 14:55 42.23400 14.26318 29312 ft 375 kts 204°
2026-05-04 14:55 42.20980 14.25051 28958 ft 371 kts 204°
2026-05-04 14:55 42.18577 14.23797 28585 ft 369 kts 204°
2026-05-04 14:56 42.16191 14.22551 28234 ft 366 kts 204°
2026-05-04 14:56 42.13825 14.21316 27890 ft 363 kts 204°
2026-05-04 14:56 42.11479 14.20090 27548 ft 360 kts 204°
2026-05-04 14:56 42.09152 14.18878 27208 ft 357 kts 204°
2026-05-04 14:57 42.06845 14.17677 26860 ft 354 kts 204°
2026-05-04 14:57 42.04556 14.16486 26532 ft 350 kts 204°
2026-05-04 14:57 42.02292 14.15303 26172 ft 348 kts 206°
2026-05-04 14:57 42.00081 14.14093 26129 ft 340 kts 204°
2026-05-04 14:58 41.97832 14.12952 26129 ft 353 kts 204°
2026-05-04 14:58 41.95483 14.11754 26124 ft 368 kts 204°
2026-05-04 14:58 41.93063 14.10509 26111 ft 374 kts 204°
2026-05-04 14:58 41.90639 14.09262 26109 ft 372 kts 204°
2026-05-04 14:59 41.88220 14.08082 26098 ft 368 kts 199°
2026-05-04 14:59 41.85704 14.07406 26113 ft 370 kts 191°
2026-05-04 14:59 41.80546 14.06482 26133 ft 377 kts 190°
2026-05-04 15:00 41.77937 14.06020 26121 ft 380 kts 191°
2026-05-04 15:00 41.75317 14.05545 26114 ft 380 kts 191°
2026-05-04 15:00 41.72697 14.05059 26115 ft 380 kts 192°
2026-05-04 15:01 41.67493 14.04077 26129 ft 380 kts 192°
2026-05-04 15:01 41.64824 14.03708 26109 ft 383 kts 181°
2026-05-04 15:01 41.62217 14.04467 26129 ft 388 kts 158°
2026-05-04 15:01 41.59944 14.06389 26094 ft 388 kts 138°
2026-05-04 15:02 41.58111 14.08946 25817 ft 385 kts 134°
2026-05-04 15:02 41.56319 14.11606 25419 ft 385 kts 133°
2026-05-04 15:02 41.54534 14.14269 24977 ft 386 kts 134°
2026-05-04 15:02 41.52622 14.16767 24587 ft 384 kts 140°
2026-05-04 15:03 41.50616 14.19084 24146 ft 379 kts 141°
2026-05-04 15:03 41.48604 14.21336 23599 ft 377 kts 142°
2026-05-04 15:03 41.46597 14.23561 22994 ft 373 kts 141°
2026-05-04 15:03 41.44611 14.25767 22429 ft 369 kts 141°
2026-05-04 15:04 41.42648 14.27956 21760 ft 368 kts 141°
2026-05-04 15:04 41.40678 14.30158 21008 ft 371 kts 141°
2026-05-04 15:04 41.38701 14.32371 20268 ft 372 kts 142°
2026-05-04 15:04 41.36723 14.34587 19560 ft 372 kts 141°
2026-05-04 15:05 41.34742 14.36808 18845 ft 372 kts 142°
2026-05-04 15:05 41.32756 14.39033 17984 ft 375 kts 142°
2026-05-04 15:05 41.30756 14.41268 17076 ft 376 kts 142°
2026-05-04 15:05 41.28754 14.43505 16188 ft 376 kts 141°
2026-05-04 15:06 41.26753 14.45740 15327 ft 375 kts 142°
2026-05-04 15:06 41.24761 14.47967 14490 ft 374 kts 141°
2026-05-04 15:06 41.22777 14.50179 13632 ft 371 kts 142°
2026-05-04 15:07 41.18858 14.54550 11845 ft 365 kts 141°
2026-05-04 15:07 41.16938 14.56685 11209 ft 355 kts 141°
2026-05-04 15:07 41.15035 14.58794 10274 ft 357 kts 141°
2026-05-04 15:07 41.13053 14.60763 9310 ft 356 kts 147°
2026-05-04 15:08 41.10940 14.62450 8333 ft 353 kts 156°
2026-05-04 15:08 41.08572 14.63129 7508 ft 347 kts 183°
2026-05-04 15:08 41.06288 14.62541 7162 ft 327 kts 201°
2026-05-04 15:08 41.04303 14.61169 6619 ft 318 kts 216°
2026-05-04 15:09 41.02736 14.59178 6047 ft 309 kts 232°
2026-05-04 15:09 41.01569 14.56808 5372 ft 300 kts 239°
2026-05-04 15:09 41.00573 14.54540 4909 ft 270 kts 239°
2026-05-04 15:10 40.98783 14.50685 4171 ft 223 kts 238°
2026-05-04 15:10 40.97991 14.49010 3838 ft 206 kts 238°
2026-05-04 15:10 40.96595 14.46051 3299 ft 174 kts 239°
2026-05-04 15:11 40.95990 14.44769 3050 ft 156 kts 239°
2026-05-04 15:11 40.95445 14.43614 2832 ft 146 kts 238°
2026-05-04 15:11 40.94913 14.42487 2620 ft 144 kts 238°
2026-05-04 15:11 40.94390 14.41374 2412 ft 141 kts 239°
2026-05-04 15:12 40.93876 14.40282 2207 ft 140 kts 240°
2026-05-04 15:12 40.93366 14.39199 2007 ft 137 kts 239°
2026-05-04 15:12 40.92845 14.38096 1795 ft 143 kts 238°
2026-05-04 15:12 40.92493 14.37346 1630 ft 145 kts 238°
2026-05-04 15:13 40.91965 14.36222 1413 ft 143 kts 237°
2026-05-04 15:13 40.91278 14.34764 1128 ft 139 kts 236°
2026-05-04 15:13 40.90932 14.34028 1033 ft 139 kts 234°
2026-05-04 15:13 40.90415 14.32929 805 ft 139 kts 235°
2026-05-04 15:14 40.89896 14.31822 578 ft 143 kts 232°
2026-05-04 15:14 40.89387 14.30714 342 ft 136 kts 234°
2026-05-04 15:14 40.88894 14.29697 250 ft 126 kts 237°
2026-05-04 15:14 40.88538 14.28939 272 ft 66 kts 238°
2026-05-04 15:15 40.88389 14.28623 284 ft 26 kts 238°
2026-05-04 15:15 40.88291 14.28481 284 ft 15 kts 218°
2026-05-04 15:15 40.88245 14.28436 285 ft 7 kts 213°
2026-05-04 15:16 40.88168 14.28380 287 ft 6 kts 208°
2026-05-04 15:16 40.88131 14.28354 288 ft 6 kts 207°
2026-05-04 15:16 40.88058 14.28304 290 ft 6 kts 207°
2026-05-04 15:17 40.88022 14.28280 293 ft 3 kts 204°
2026-05-04 15:17 40.87973 14.28249 294 ft 7 kts 205°
2026-05-04 15:17 40.87925 14.28234 295 ft 7 kts 186°
2026-05-04 15:18 40.87889 14.28228 298 ft 2 kts 187°
2026-05-04 15:18 40.87885 14.28228 298 ft 0 kts 187°